DECAYED
Showing default

BIROS, 41604 (Decayed)

Orbit data source: Space-Track

BIROS, 41604 was a payload satellite owned by DLR (DE) in LEO that was launched on Wed, 22 Jun 2016 UTC via a PSLV-XL launch vehicle from the Sirharikota (SRI). Payload-class satellites include a variety of spacecraft equipped with specific instruments for various scientific and technological missions. These include communications satellites like Starlink; space stations such as the ISS; scientific satellites like the Hubble; Earth observation satellites from companies like Planet Labs, Umbra, and HawkEye 360; GPS; miniature CubeSats for education and research; and military/defense satellites.

Not visible in the next 10 days
Identifier
41604, 2016-040F
Orbit
Decayed
Country
Flag of DEDE / GER
Related business
Manufacturer
ASTFN/KTHR
Mission
Decayed Civil Imaging
Bus & Motor
TET-X, Unknown motor
Mass
130 kg wet, 130 kg dry
Launch date (UTC)
2016-06-22 (10 years ago)
Launch vehicle
PSLV-XL
Launch site
Sirharikota (SRI)
Object type
Payload
Rocket body
Debris
Shape & HBR
Box + 2 Pan, 0.9 m
Radar Cross Section
0.799 m², Medium (>0.1 m² and < 1m²)

Expand to show TLE details & history
Last TLE update: 4 months ago

TLE from 4 months ago
0 BIROS
1 41604U 16040F   26022.73596191  .14769030  23777-5  11778-3 0  9997
2 41604  97.0481  61.6306 0009019 275.2378  84.7900 16.52384104535297
Epoch: 2026-01-22T17:39Z
TLE epoch observation values (Epoch: 2026-01-22T17:39:47.109Z)
Latitude
0.00004°
Longitude
34.59946°
Altitude
135.815 km
Speed
7.825 km/s
True Right ascension
04h 06m 31s
True Declination
0° 00' 00"
Sunlit
Object was in full shadow at epoch
Visualization orbit readout
Latitude
Unknown
Longitude
Unknown
Altitude
Unknown
Speed
Unknown
Apparent Right ascension
Unknown
Apparent Declination
Unknown
Sunlit
N/A
Visualization observer readout
Local Sidereal Time
17:31:18
Azimuth
Unknown
Elevation
Unknown
Doppler factor
Unknown
Orbital elements
Apogee altitude
135.711 km
Perigee altitude
123.971 km
Semi-major axis
6,507.978 km
Eccentricity
0.0009
Inclination
97.0481°
RAAN
61.6306°
Arg. of periapsis
275.2378°
True anomaly
84.89293°
Mean anomaly
84.79°
Eccentric anomaly
84.84147°
Mean motion
4.13403 °/min
Orbital period
87.08 mins
BSTAR
0.00011778
Loading maneuver chart data...
Computing Atmospheric mass density...
Loading historical data...
Loading historical data...
Loading historical data...
Loading historical data...
Loading historical data...
Loading historical data...
Loading historical data...

Documentation

Showing up to 5 results
|